Regional Weather Roundup
Issued by NWS Midland/Odessa, TX

Home | Current Version | Previous Version | Text Only | Print | Product List | Glossary On
Versions: 1 2 3 4 5 6 7 8 9 10 11 12 13 14 15 16 17 18 19 20 21 22 23 24 25 26 27 28 29 30 31 32 33 34 35 36 37 38 39 40 41 42 43 44 45 46 47 48 49 50
000
ASUS44 KMAF 030510
RWRMAF
MIDLAND AREA WEATHER ROUNDUP
NATIONAL WEATHER SERVICE MIDLAND TX
1100 PM CST FRI DEC 02 2016

...IN SOUTHWEST TEXAS AND SOUTHEAST NEW MEXICO...

CITY           SKY/WX    TMP DP  RH WIND       PRES   REMARKS
ALPINE         CLOUDY    45  38  77 NE3       30.06R
ANDREWS        RAIN      41  41 100 N9G16     30.04F WCI  35
ARTESIA        DRIZZLE   43  43 100 NE12      30.08F WCI  37
BIG SPRING     CLOUDY    45  44  98 N13       30.04F WCI  39
CARLSBAD       RAIN      44  44 100 N10       30.06R WCI  39
DRYDEN           N/A     58  57  97 E12       29.91R
FORT STOCKTON  LGT RAIN  49  45  86 W7        29.99R
GUAD PASS      LGT RAIN  40  39  97 NE29      29.99F FOG     WCI  29
HOBBS          LGT RAIN  39  39 100 N12       30.07S WCI  32
MARFA          LGT RAIN  44  39  82 VRB5      30.01R
MIDLAND AIRPK  LGT RAIN  44  44 100 NE12      30.03S WCI  38
MIDLAND INTL   LGT RAIN  44  41  89 NE16      30.00F FOG     WCI  37
ODESSA         LGT RAIN  43  41  93 NE12      30.01F FOG     WCI  37
PECOS          RAIN      46  45  95 N14       30.00S WCI  40
PRESIDIO       FAIR      57  45  65 N8        29.89R
SEMINOLE       RAIN      40  40 100 NE10      30.07F WCI  34
SNYDER         CLOUDY    44  44 100 NE9       30.08S WCI  39
WINK           LGT RAIN  44  44 100 N16       29.99F FOG     WCI  37
$$
...OTHER STATIONS IN TEXAS...

CITY           SKY/WX    TMP DP  RH WIND       PRES   REMARKS
ABILENE        LGT RAIN  47  47 100 E10       30.08F
AMARILLO       MIX PCPN  35  35 100 NE15      30.17S FOG     WCI  25
AUSTIN         CLOUDY    52  50  93 NE9       30.03F
BROWNSVILLE    CLOUDY    76  73  91 S9        29.88S
CORPUS CHRISTI LGT RAIN  69  67  93 E18       29.88F
DALLAS FTW     CLOUDY    57  39  51 E7        30.13S
DEL RIO        CLOUDY    60  59  96 E10       29.89F
EL PASO        CLOUDY    50  34  54 NE16G22   29.91F
HOUSTON INT    CLOUDY    54  46  74 NE14      30.04S
LUBBOCK        LGT RAIN  39  38  96 NE18G28   30.08F FOG     WCI  30
SAN ANGELO     NOT AVBL
SAN ANTONIO    CLOUDY    53  47  79 NE8       30.00S
WACO           NOT AVBL
WICHITA FALLS  NOT AVBL
$$
...OTHER LOCATIONS IN NEW MEXICO...

CITY           SKY/WX    TMP DP  RH WIND       PRES   REMARKS
ALAMAGORDO     NOT AVBL
ALBUQUERQUE    MOCLDY    36  23  59 E23G35    30.06R WCI  24
CANNON AFB     CLOUDY    35  35 100 NE20      30.10F WCI  24
CLOVIS         CLOUDY    36  32  87 NE18G24   30.11F WCI  25
HOLLOMAN AFB   PTCLDY    46  30  53 W12       29.99R
ROSWELL        CLOUDY    44  32  62 NE14      30.09S WCI  37
RUIDOSO        CLOUDY    28  25  86 SE9       30.08S WCI  20
SANTA FE       CLOUDY    32  24  72 S5        30.09S WCI  27
TRUTH OR CONSE CLOUDY    42  30  62 N21G28    29.98R WCI  33
TUCUMCARI      CLOUDY    36  29  75 NE16      30.17R WCI  26
$$




USA.gov is the U.S. government's official web portal to all federal, state and local government web resources and services.